Weather in Orlando

United States     28°32′04″N   81°24′42″W
temp.,
°C
wind,
m/s
gust,
m/s
humid.,
%
clouds,
%
prec.,
mm/h
press.,
hPa
HPBL,
m
18 may, tue
tue1823:00+22e486666 0.0 1021552
02:00+22e497187 0.1 1021578
05:00+21ene3107538 0.0 1020476
08:00+22e596424 0.0 1022757
11:00+27e685178 0.1 10221768
14:00+27e674475 0.1 10211855
17:00+29e773716 0.0 10192341
20:00+25e79531 0.0 10211191
19 may, wed
wed1923:00+23e59635 0.0 1022881
02:00+22e410655 0.0 1021666
05:00+21ene3968100 0.0 1020478
08:00+22e41070100 0.1 1022804
11:00+26e7953100 0.1 10221629
14:00+27e7849100 0.1 10211874
17:00+26e8947100 0.0 10211721
20:00+24e61064100 0.1 10221163
20 may, thu
thu2023:00+23e61058100 0.1 10231105
02:00+22e5106178 0.1 10221020
05:00+22e595999 0.0 10211140
08:00+23e59558 0.0 10231379
11:00+25e7104892 0.0 10241791
14:00+30e810330 0.0 10232259
17:00+27e81047100 0.0 10221865
20:00+24e7105531 0.0 10231412
21 may, fri
fri2123:00+22e5106142 0.0 10241086
02:00+23e61055100 0.0 10241599
05:00+23e695447 0.0 10241521
08:00+23ene596687 0.1 10251006
11:00+26ene7105099 0.1 10261855
14:00+30ene793719 0.1 10242313
17:00+29ene893910 0.0 10232344
20:00+25ene695666 0.0 10241195
22 may, sat
sat2223:00+23ene596342 0.0 1025837
02:00+22ene4857100 0.0 1024834
05:00+21ene3863100 0.0 1023531
08:00+22ene375793 0.0 1024681
11:00+27ene464170 0.0 10241988
14:00+31e56297 0.0 10222441
17:00+30e653143 0.0 10202454
20:00+25ene775492 0.0 1021937